Weather History for KBVN - August, 2014

Change the Weather History Date:

Thursday, August 21, 2014

  Actual Average (KOFK) Record (KOFK)
Temperature  
Mean Temperature 78 °F 72 °F  
Max Temperature 88 °F 84 °F 100 °F (1914)
Min Temperature 68 °F 61 °F 43 °F (1939)
Degree Days  
Heating Degree Days 0 0  
Month to date heating degree days 0  
Since 1 June heating degree days 34  
Since 1 July heating degree days 4  
Cooling Degree Days 13 8  
Month to date cooling degree days 188  
Year to date cooling degree days 749  
Since 1 June cooling degree days 688  
Growing Degree Days 28 (Base 50)    
Moisture  
Dew Point 68 °F    
Average Humidity 69    
Maximum Humidity 90    
Minimum Humidity 48    
Precipitation  
Precipitation 0.01 in 0.10 in 2.48 in (1998)
Month to date precipitation 2.32  
Year to date precipitation 19.60  
Snow  
Snow 0.00 in 0.00 in - ()
Month to date snowfall 0.0  
Since 1 July snowfall 0.0  
Snow Depth -    
Sea Level Pressure  
Sea Level Pressure 29.83 in    
Wind  
Wind Speed 5 mph (SW)    
Max Wind Speed 20 mph    
Max Gust Speed 25 mph    
Visibility 10 miles    
Events Rain , Thunderstorm    
T = Trace of Precipitation, MM = Missing Value Source: NWS Daily Summary

Daily Weather History Graph

Daily Weather History Graph

Search for Another Location

Airport or City:

Trip Planner

Search our weather history database for the weather conditions in past years. The results will help you decide how hot, cold, wet, or windy it might be!

Date:

Astronomy

Aug. 21, 2014 Rise Set
Actual Time 6:46 AM CDT 8:23 PM CDT
Civil Twilight 6:17 AM CDT 8:52 PM CDT
Nautical Twilight 5:41 AM CDT 9:27 PM CDT
Astronomical Twilight 5:03 AM CDT 10:05 PM CDT
Moon 3:16 AM CDT (8/21) 5:54 PM CDT (8/21)
Length of Visible Light 14h 34m
Length of Day
13h 36m
Waning Crescent, 13% of the Moon is Illuminated
Aug 21
Waning Crescent
Aug 25
New
Sep 2
First Quarter
Sep 8
Full
Sep 15
Last Quarter

Hourly Weather History & Observations

Time (CDT) Temp. Heat Index Dew Point Humidity Pressure Visibility Wind Dir Wind Speed Gust Speed Precip Events Conditions
12:15 AM 76.3 °F - 69.3 °F 79% 29.75 in 10.0 mi SSE 8.1 mph - N/A   Scattered Clouds
12:35 AM 77.7 °F - 68.9 °F 74% 29.74 in 10.0 mi SSE 6.9 mph - N/A   Scattered Clouds
12:55 AM 77.2 °F - 68.5 °F 75% 29.75 in 10.0 mi South 6.9 mph - N/A   Clear
1:15 AM 77.0 °F - 68.4 °F 75% 29.75 in 10.0 mi Calm Calm - N/A   Clear
1:35 AM 77.0 °F - 68.4 °F 75% 29.76 in 10.0 mi SSW 4.6 mph - N/A   Clear
1:55 AM 77.2 °F - 68.0 °F 73% 29.76 in 10.0 mi South 6.9 mph - N/A   Clear
2:15 AM 76.1 °F - 68.2 °F 76% 29.75 in 10.0 mi South 3.5 mph - N/A   Clear
2:35 AM 76.6 °F - 67.8 °F 74% 29.75 in 10.0 mi SSW 5.8 mph - N/A Rain Light Rain
2:55 AM 76.1 °F - 68.2 °F 76% 29.77 in 10.0 mi South 4.6 mph - N/A Rain Light Rain
3:15 AM 76.1 °F - 66.9 °F 73% 29.77 in 10.0 mi SSW 4.6 mph - N/A Rain Light Rain
3:35 AM 73.9 °F - 65.3 °F 74% 29.78 in 10.0 mi SSW 8.1 mph 20.7 mph N/A Rain Light Rain
3:55 AM 72.0 °F - 64.6 °F 77% 29.79 in 10.0 mi SSW 18.4 mph 25.3 mph 0.01 in Rain , Thunderstorm Light Thunderstorms and Rain
4:10 AM 72.5 °F - 63.0 °F 72% 29.79 in 10.0 mi SW 19.6 mph 25.3 mph N/A Thunderstorm Scattered Clouds
4:35 AM 71.6 °F - 62.2 °F 72% 29.76 in 10.0 mi South 16.1 mph 25.3 mph N/A Rain , Thunderstorm Light Thunderstorms and Rain
4:55 AM 69.8 °F - 61.7 °F 75% 29.76 in 10.0 mi SSW 12.7 mph 20.7 mph N/A Thunderstorm Unknown
5:15 AM 69.1 °F - 62.4 °F 79% 29.78 in 10.0 mi SW 4.6 mph - N/A   Clear
5:35 AM 69.1 °F - 62.6 °F 80% 29.79 in 10.0 mi Calm Calm - N/A   Clear
5:55 AM 68.9 °F - 62.4 °F 80% 29.80 in 10.0 mi Calm Calm - N/A   Clear
6:15 AM 69.1 °F - 62.1 °F 78% 29.79 in 10.0 mi SE 3.5 mph - N/A   Clear
6:35 AM 69.3 °F - 62.6 °F 79% 29.79 in 10.0 mi SE 4.6 mph - N/A   Clear
6:55 AM 69.3 °F - 62.6 °F 79% 29.80 in 10.0 mi Calm Calm - N/A   Clear
7:15 AM 69.1 °F - 62.8 °F 80% 29.80 in 10.0 mi Calm Calm - N/A   Clear
7:35 AM 69.4 °F - 63.1 °F 80% 29.80 in 10.0 mi Calm Calm - N/A   Clear
7:55 AM 70.5 °F - 64.4 °F 81% 29.81 in 10.0 mi Calm Calm - N/A   Clear
8:15 AM 71.6 °F - 64.8 °F 79% 29.82 in 10.0 mi WNW 4.6 mph - N/A   Clear
8:55 AM 73.8 °F - 65.3 °F 75% 29.83 in 10.0 mi WSW 5.8 mph - N/A   Clear
9:15 AM 74.3 °F - 65.8 °F 75% 29.83 in 10.0 mi SSW 6.9 mph - N/A   Clear
9:35 AM 75.0 °F - 66.6 °F 75% 29.82 in 10.0 mi SSW 6.9 mph - N/A   Clear
9:55 AM 77.0 °F - 67.6 °F 73% 29.83 in 10.0 mi South 5.8 mph - N/A   Clear
10:15 AM 78.6 °F - 67.5 °F 68% 29.83 in 10.0 mi South 9.2 mph - N/A   Clear
10:35 AM 79.7 °F - 68.0 °F 67% 29.83 in 10.0 mi South 9.2 mph - N/A   Clear
10:55 AM 79.9 °F - 68.2 °F 67% 29.84 in 10.0 mi SSW 5.8 mph - N/A   Clear
11:15 AM 80.6 °F 83.4 °F 68.2 °F 66% 29.84 in 10.0 mi SW 9.2 mph - N/A   Clear
11:35 AM 81.7 °F 84.9 °F 68.7 °F 65% 29.83 in 10.0 mi West 6.9 mph - N/A   Clear
12:15 PM 83.5 °F 87.4 °F 69.6 °F 63% 29.84 in 10.0 mi WSW 6.9 mph - N/A   Clear
12:35 PM 84.4 °F 88.5 °F 69.4 °F 61% 29.85 in 10.0 mi WNW 5.8 mph - N/A   Clear
12:55 PM 85.1 °F 89.1 °F 69.3 °F 59% 29.85 in 10.0 mi West 9.2 mph - N/A   Clear
1:15 PM 85.5 °F 89.1 °F 68.5 °F 57% 29.85 in 10.0 mi WNW 6.9 mph - N/A   Clear
1:35 PM 86.7 °F 89.6 °F 67.1 °F 52% 29.85 in 10.0 mi NW 8.1 mph - N/A   Clear
1:55 PM 86.9 °F 89.9 °F 67.5 °F 52% 29.85 in 10.0 mi WNW 8.1 mph - N/A   Clear
2:15 PM 87.1 °F 90.2 °F 67.3 °F 52% 29.84 in 10.0 mi NNW 3.5 mph - N/A   Clear
2:35 PM 87.4 °F 91.2 °F 68.5 °F 53% 29.84 in 10.0 mi NW 5.8 mph - N/A   Clear
2:55 PM 87.8 °F 91.1 °F 67.8 °F 51% 29.85 in 10.0 mi NW 3.5 mph - N/A   Clear
3:15 PM 88.2 °F 91.3 °F 67.3 °F 50% 29.85 in 10.0 mi Calm Calm - N/A   Clear
3:35 PM 88.2 °F 90.9 °F 66.9 °F 49% 29.85 in 10.0 mi WSW 3.5 mph - N/A   Clear
3:55 PM 88.2 °F 90.9 °F 66.9 °F 49% 29.86 in 10.0 mi SSW 3.5 mph - N/A   Clear
4:15 PM 88.3 °F 90.9 °F 66.6 °F 48% 29.86 in 10.0 mi Calm Calm - N/A   Clear
4:35 PM 88.0 °F 91.8 °F 68.4 °F 52% 29.86 in 10.0 mi Calm Calm - N/A   Mostly Cloudy
4:55 PM 88.0 °F 91.0 °F 67.1 °F 50% 29.86 in 10.0 mi Calm Calm - N/A   Scattered Clouds
5:15 PM 86.9 °F 89.9 °F 67.3 °F 52% 29.86 in 10.0 mi Calm Calm - N/A   Clear
5:35 PM 87.8 °F 90.7 °F 67.3 °F 50% 29.86 in 10.0 mi Calm Calm - N/A   Clear
5:55 PM 86.7 °F 91.4 °F 70.0 °F 57% 29.87 in 10.0 mi Calm Calm - N/A   Clear
6:15 PM 87.8 °F 91.4 °F 68.2 °F 52% 29.86 in 10.0 mi Calm Calm - N/A   Clear
6:35 PM 86.7 °F 91.0 °F 69.1 °F 56% 29.86 in 10.0 mi NE 5.8 mph - N/A   Clear
6:55 PM 85.3 °F 89.8 °F 70.0 °F 60% 29.86 in 10.0 mi NNE 6.9 mph - N/A   Clear
7:15 PM 85.8 °F 90.4 °F 70.2 °F 59% 29.86 in 10.0 mi North 6.9 mph - N/A   Clear
7:35 PM 84.4 °F 89.0 °F 70.3 °F 63% 29.86 in 10.0 mi North 4.6 mph - N/A   Clear
7:55 PM 83.1 °F 87.6 °F 70.7 °F 66% 29.86 in 10.0 mi NNE 5.8 mph - N/A   Clear
8:15 PM 81.1 °F 85.0 °F 71.1 °F 71% 29.87 in 10.0 mi North 4.6 mph - N/A   Clear
8:35 PM 80.2 °F 84.0 °F 71.6 °F 75% 29.89 in 10.0 mi Calm Calm - N/A   Clear
8:55 PM 78.8 °F - 71.8 °F 79% 29.89 in 10.0 mi Calm Calm - N/A   Clear
9:15 PM 79.2 °F - 70.9 °F 76% 29.90 in 10.0 mi Calm Calm - N/A   Clear
9:35 PM 77.0 °F - 71.8 °F 84% 29.91 in 10.0 mi Calm Calm - N/A Thunderstorm Clear
9:55 PM 76.5 °F - 71.6 °F 85% 29.91 in 10.0 mi Calm Calm - N/A   Scattered Clouds
10:15 PM 75.6 °F - 70.7 °F 85% 29.91 in 10.0 mi Calm Calm - N/A   Clear
10:35 PM 75.0 °F - 71.8 °F 90% 29.92 in 10.0 mi Calm Calm - N/A   Mostly Cloudy
11:15 PM 77.9 °F - 70.3 °F 77% 29.91 in 10.0 mi ENE 5.8 mph - N/A   Mostly Cloudy
11:35 PM 77.5 °F - 70.2 °F 78% 29.91 in 10.0 mi ENE 4.6 mph - N/A   Mostly Cloudy
11:55 PM 75.4 °F - 70.2 °F 84% 29.91 in 10.0 mi Calm Calm - N/A   Clear